TimeCST,TemperatureF,Dew PointF,Humidity,Sea Level PressureIn,VisibilityMPH,Wind Direction,Wind SpeedMPH,Gust SpeedMPH,PrecipitationIn,Events,Conditions,WindDirDegrees,DateUTC
12:15 AM,8.6,6.8,92,30.10,0.8,Calm,Calm,-,N/A,,Overcast,0,2013-02-27 06:15:00
12:35 AM,8.6,6.8,92,30.10,2.0,Calm,Calm,-,N/A,,Overcast,0,2013-02-27 06:35:00
12:54 AM,8.6,6.8,92,30.10,0.8,Calm,Calm,-,N/A,,Overcast,0,2013-02-27 06:54:00
1:15 AM,8.6,6.8,92,30.10,1.2,Calm,Calm,-,N/A,,Overcast,0,2013-02-27 07:15:00
1:35 AM,8.6,6.8,92,30.10,1.8,Calm,Calm,-,N/A,,Overcast,0,2013-02-27 07:35:00
1:54 AM,8.6,6.8,92,30.10,1.5,Calm,Calm,-,N/A,,Overcast,0,2013-02-27 07:54:00
2:15 AM,10.4,6.8,85,30.10,0.2,Calm,Calm,-,N/A,Snow,Light Snow,0,2013-02-27 08:15:00
2:34 AM,10.4,8.6,92,30.10,0.2,Calm,Calm,-,N/A,Snow,Light Snow,0,2013-02-27 08:34:00
2:54 AM,10.4,8.6,92,30.10,0.2,Calm,Calm,-,N/A,Fog,Light Freezing Fog,0,2013-02-27 08:54:00
3:15 AM,10.4,8.6,92,30.09,0.2,Calm,Calm,-,N/A,Fog,Light Freezing Fog,0,2013-02-27 09:15:00
3:34 AM,10.4,8.6,92,30.10,0.5,Calm,Calm,-,N/A,Fog,Light Freezing Fog,0,2013-02-27 09:34:00
3:54 AM,10.4,8.6,92,30.09,1.0,Calm,Calm,-,N/A,,Overcast,0,2013-02-27 09:54:00
4:15 AM,10.4,8.6,92,30.09,0.5,Calm,Calm,-,N/A,Snow,Light Snow,0,2013-02-27 10:15:00
4:34 AM,10.4,8.6,92,30.10,0.5,Calm,Calm,-,N/A,Snow,Light Snow,0,2013-02-27 10:34:00
4:55 AM,10.4,8.6,92,30.10,0.5,Calm,Calm,-,N/A,Snow,Light Snow,0,2013-02-27 10:55:00
5:15 AM,8.6,6.8,92,30.11,1.0,Calm,Calm,-,N/A,,Overcast,0,2013-02-27 11:15:00
5:34 AM,8.6,6.8,92,30.11,1.0,Calm,Calm,-,N/A,,Overcast,0,2013-02-27 11:34:00
5:55 AM,8.6,6.8,92,30.12,1.2,Calm,Calm,-,N/A,Snow,Light Snow,0,2013-02-27 11:55:00
6:15 AM,8.6,5.0,85,30.12,1.0,Calm,Calm,-,N/A,,Overcast,0,2013-02-27 12:15:00
6:55 AM,6.8,5.0,92,30.12,4.0,Calm,Calm,-,N/A,Snow,Light Snow,0,2013-02-27 12:55:00
7:15 AM,8.6,6.8,92,30.12,1.0,Calm,Calm,-,N/A,Snow,Light Snow,0,2013-02-27 13:15:00
7:34 AM,8.6,5.0,85,30.12,0.5,Calm,Calm,-,N/A,Snow,Light Snow,0,2013-02-27 13:34:00
7:55 AM,8.6,6.8,92,30.12,0.2,Calm,Calm,-,N/A,Snow,Light Snow,0,2013-02-27 13:55:00
8:14 AM,8.6,5.0,85,30.12,0.8,Calm,Calm,-,N/A,Snow,Light Snow,0,2013-02-27 14:14:00
8:34 AM,8.6,6.8,92,30.13,1.2,Calm,Calm,-,N/A,Snow,Light Snow,0,2013-02-27 14:34:00
8:55 AM,8.6,6.8,92,30.14,0.8,Calm,Calm,-,N/A,Snow,Light Snow,0,2013-02-27 14:55:00
9:14 AM,10.4,8.6,92,30.14,1.5,Calm,Calm,-,N/A,Snow,Light Snow,0,2013-02-27 15:14:00
9:35 AM,10.4,8.6,92,30.14,3.0,Calm,Calm,-,N/A,Snow,Light Snow,0,2013-02-27 15:35:00
9:55 AM,12.2,10.4,92,30.14,5.0,Calm,Calm,-,N/A,Snow,Light Snow,0,2013-02-27 15:55:00
10:14 AM,12.2,10.4,92,30.13,5.0,Calm,Calm,-,N/A,Snow,Light Snow,0,2013-02-27 16:14:00
10:35 AM,14.0,12.2,93,30.13,7.0,Calm,Calm,-,N/A,,Scattered Clouds,0,2013-02-27 16:35:00
10:54 AM,15.8,14.0,93,30.13,7.0,North,4.6,-,N/A,,Scattered Clouds,350,2013-02-27 16:54:00
11:14 AM,15.8,14.0,93,30.12,10.0,North,4.6,-,N/A,,Clear,350,2013-02-27 17:14:00
11:35 AM,17.6,15.8,93,30.12,7.0,North,5.8,-,N/A,,Clear,350,2013-02-27 17:35:00
12:15 PM,19.4,17.6,93,30.13,10.0,North,5.8,-,N/A,,Clear,350,2013-02-27 18:15:00
12:35 PM,21.2,19.4,93,30.12,10.0,North,6.9,-,N/A,,Clear,350,2013-02-27 18:35:00
12:54 PM,21.2,19.4,93,30.12,10.0,North,6.9,-,N/A,,Clear,360,2013-02-27 18:54:00
1:15 PM,21.2,19.4,93,30.12,10.0,North,5.8,-,N/A,,Clear,360,2013-02-27 19:15:00
1:35 PM,23.0,21.2,93,30.12,10.0,North,6.9,-,N/A,,Clear,360,2013-02-27 19:35:00
1:54 PM,23.0,21.2,93,30.12,10.0,North,8.1,-,N/A,,Clear,360,2013-02-27 19:54:00
2:15 PM,24.8,21.2,86,30.12,10.0,North,10.4,-,N/A,,Clear,360,2013-02-27 20:15:00
2:35 PM,24.8,21.2,86,30.12,10.0,North,12.7,-,N/A,,Clear,360,2013-02-27 20:35:00
2:54 PM,24.8,23.0,93,30.12,10.0,North,16.1,-,N/A,,Clear,360,2013-02-27 20:54:00
3:15 PM,24.8,24.8,100,30.12,10.0,North,18.4,-,N/A,,Clear,360,2013-02-27 21:15:00
3:34 PM,26.6,24.8,93,30.12,10.0,North,16.1,-,N/A,,Clear,350,2013-02-27 21:34:00
3:54 PM,24.8,24.8,100,30.13,10.0,North,19.6,-,N/A,,Clear,350,2013-02-27 21:54:00
4:15 PM,24.8,24.8,100,30.14,10.0,North,17.3,-,N/A,,Clear,350,2013-02-27 22:15:00
4:35 PM,24.8,23.0,93,30.14,10.0,North,18.4,-,N/A,,Clear,350,2013-02-27 22:35:00
4:54 PM,24.8,23.0,93,30.14,10.0,North,19.6,-,N/A,,Clear,350,2013-02-27 22:54:00
5:15 PM,24.8,23.0,93,30.15,10.0,North,21.9,-,N/A,,Clear,350,2013-02-27 23:15:00
5:34 PM,24.8,21.2,86,30.15,10.0,North,20.7,-,N/A,,Clear,350,2013-02-27 23:34:00
5:54 PM,24.8,21.2,86,30.16,10.0,North,21.9,-,N/A,,Clear,360,2013-02-27 23:54:00
6:15 PM,23.0,21.2,93,30.17,10.0,North,17.3,-,N/A,,Clear,360,2013-02-28 00:15:00
6:35 PM,21.2,21.2,100,30.17,10.0,North,18.4,-,N/A,,Clear,350,2013-02-28 00:35:00
6:54 PM,21.2,19.4,93,30.18,10.0,North,16.1,-,N/A,,Clear,360,2013-02-28 00:54:00
7:15 PM,21.2,19.4,93,30.18,10.0,North,15.0,-,N/A,,Clear,360,2013-02-28 01:15:00
7:34 PM,21.2,19.4,93,30.18,10.0,North,15.0,-,N/A,,Clear,350,2013-02-28 01:34:00
8:15 PM,19.4,19.4,100,30.19,10.0,North,15.0,-,N/A,,Clear,360,2013-02-28 02:15:00
8:34 PM,21.2,19.4,93,30.19,10.0,North,15.0,-,N/A,,Clear,360,2013-02-28 02:34:00
8:54 PM,19.4,19.4,100,30.19,10.0,North,17.3,-,N/A,,Clear,360,2013-02-28 02:54:00
9:15 PM,19.4,17.6,93,30.20,10.0,North,15.0,-,N/A,,Clear,360,2013-02-28 03:15:00
9:34 PM,19.4,17.6,93,30.20,10.0,North,13.8,-,N/A,,Clear,360,2013-02-28 03:34:00
9:54 PM,19.4,17.6,93,30.21,10.0,North,11.5,-,N/A,,Clear,360,2013-02-28 03:54:00
10:15 PM,17.6,17.6,100,30.21,10.0,North,13.8,-,N/A,,Clear,360,2013-02-28 04:15:00
10:34 PM,17.6,15.8,93,30.21,10.0,North,9.2,-,N/A,,Clear,360,2013-02-28 04:34:00
10:54 PM,19.4,17.6,93,30.21,10.0,North,11.5,-,N/A,,Mostly Cloudy,360,2013-02-28 04:54:00
11:15 PM,19.4,17.6,93,30.21,10.0,North,8.1,-,N/A,,Overcast,360,2013-02-28 05:15:00
11:34 PM,19.4,17.6,93,30.21,10.0,North,8.1,-,N/A,,Overcast,10,2013-02-28 05:34:00
11:55 PM,19.4,17.6,93,30.21,10.0,North,11.5,-,N/A,,Overcast,350,2013-02-28 05:55:00